This demonstration page uses our WeatherBlox Daily Observations layout. Learn more.

Left ArrowRight Arrow

44.89941, -97.11507

Hourly Observations for January 5, 2016

Temp ( °F °C ) Dew Point ( °F °C ) Humidity (%) Winds ( mph kmh ) Pressure ( in mb ) Visibility ( mi km ) Precip ( " mm )
12:53 am 00:53 Clear 19 -7.2 12 -11.1 74 74 S 21 33 30.14 1021 10 16 0.00 0.00
1:53 am 01:53 Clear 19 -7.2 13 -10.6 77 77 S 23 37 30.11 1020 10 16 0.00 0.00
2:53 am 02:53 Clear 19 -7.2 13 -10.6 77 77 S 21 33 30.10 1019 9 14 0.00 0.00
3:53 am 03:53 Clear 20 -6.7 14 -10 78 78 S 20 31 30.08 1019 10 16 0.00 0.00
4:53 am 04:53 Clear 21 -6.1 15 -9.4 78 78 S 18 30 30.07 1018 10 16 0.00 0.00
5:53 am 05:53 Clear 21 -6.1 15 -9.4 78 78 S 20 31 30.06 1018 10 16 0.00 0.00
6:53 am 06:53 Clear 20 -6.7 15 -9.4 81 81 S 17 28 30.05 1018 10 16 0.00 0.00
7:53 am 07:53 Clear 19 -7.2 15 -9.4 84 84 S 22 35 30.04 1017 9 14 0.00 0.00
8:02 am 08:02 Partly Cloudy 19 -7.2 15 -9.4 84 84 S 18 30 30.09 1019 8 13 0.00 0.00
8:11 am 08:11 Mostly Cloudy 20 -6.7 15 -9.4 81 81 S 20 31 30.09 1019 7 11 0.00 0.00
8:53 am 08:53 Cloudy 20 -6.7 16 -8.9 85 85 S 18 30 30.05 1018 7 11 0.00 0.00
9:53 am 09:53 Cloudy with Mist and Fog 21 -6.1 17 -8.3 85 85 SSW 18 30 30.07 1018 5 8 0.00 0.00
10:53 am 10:53 Cloudy 23 -5 19 -7.2 85 85 SSW 22 35 30.06 1018 8 13 0.00 0.00
11:53 am 11:53 Cloudy with Mist and Fog 24 -4.4 21 -6.1 88 88 S 17 28 30.02 1017 6 10 0.00 0.00
12:53 pm 12:53 Cloudy with Mist and Fog 25 -3.9 22 -5.6 88 88 S 15 24 29.99 1016 4 6 0.00 0.00
1:53 pm 13:53 Cloudy with Mist and Fog 26 -3.3 23 -5 88 88 SSW 20 31 29.97 1015 4 6 0.00 0.00
2:53 pm 14:53 Cloudy with Mist and Fog 27 -2.8 24 -4.4 89 89 S 14 22 29.97 1015 5 8 0.00 0.00
3:53 pm 15:53 Cloudy with Mist and Fog 28 -2.2 24 -4.4 85 85 S 12 19 29.96 1015 5 8 0.00 0.00
4:53 pm 16:53 Cloudy with Mist and Fog 28 -2.2 25 -3.9 88 88 S 9 15 29.97 1015 4 6 0.00 0.00
5:53 pm 17:53 Cloudy 28 -2.2 25 -3.9 88 88 S 9 15 29.98 1015 7 11 0.00 0.00
6:53 pm 18:53 Cloudy 28 -2.2 25 -3.9 88 88 S 9 15 29.98 1015 7 11 0.00 0.00
7:41 pm 19:41 Mostly Clear 25 -3.9 22 -5.6 88 88 S 9 15 30.03 1017 7 11 0.00 0.00
7:53 pm 19:53 Clear 25 -3.9 21 -6.1 85 85 S 9 15 29.99 1016 7 11 0.00 0.00
8:53 pm 20:53 Clear 22 -5.6 19 -7.2 89 89 SSE 7 11 29.99 1016 7 11 0.00 0.00
9:53 pm 21:53 Clear 21 -6.1 18 -7.8 88 88 SSE 7 11 29.99 1016 7 11 0.00 0.00
10:53 pm 22:53 Clear with Mist and Fog 19 -7.2 17 -8.3 92 92 SSE 6 9 30.00 1016 6 10 0.00 0.00
11:53 pm 23:53 Clear with Mist and Fog 20 -6.7 17 -8.3 89 89 SSE 7 11 29.99 1016 6 10 0.00 0.00

Powered by AerisWeather